{"data":{"norad_id":60128,"epoch":"2026-09-21T06:35:08.177280Z","epoch_age_seconds":114564,"freshness":"FRESH","line1":"1 60128U 24118R   26264.27440020  .00001982  00000+0  75631-4 0  9997","line2":"2 60128  53.1585 196.6669 0001486  74.1799 285.9367 15.31697673125663","mean_motion":15.31697673,"eccentricity":0.0001486,"inclination_deg":53.1585,"raan_deg":196.6669,"arg_perigee_deg":74.1799,"mean_anomaly_deg":285.9367,"bstar":7.5631e-5,"rev_number":12566,"period_min":94.01333078868,"perigee_km":469.72918774806,"apogee_km":471.76467605262,"semimajor_km":6848.8839319003,"source":"CELESTRAK","updated_at":"2026-09-22T09:00:49.157881Z"}}